Погода в Кондопоге

Погода в Кондопоге : погода сейчас, прогноз погоды и архив. Всё, что Вы хотите узнать о погоде в Кондопоге!

Поиск расширенной информации на нашем сайте:

Другие новости

Новости СМИ2

Главная страница сайта

Новости сайта

03.07.2017

Напоминаем, что на нашем специализированном сайте Метеоцентр.Азия вы можете получить высокодетализированные автоматические прогнозы погоды по пунктам России, СНГ и мира в авиационном формате (включающие направление и скорость ветра, видимость, явления погоды, количество и форму облачности, нижнюю и верхнюю границу облачности).


Погода в Кондопоге - сегодня

Время (UTC), дата Ветер
(°,м/с) 
Видим.   Явления Облачность Т
(°С)
Тd
(°С)
f(%) Тe
(°С)
Pmin
(гПа)
dP
(гПа)
Po
(мм)
O2
(г/м3)
Тmin Tmax R s Состояние
почвы
03 17.10.17 280 (З) 5-11{14}  н/о    н/о 
+6.3 +2.4 76 +4  998.5  0.7  745  293  +4.8         
06 17.10.17 280 (З) 6-11{14}  24000 м    9/9 870 м 
[Sc]
+6.7 +2 72 +5  998.5  745  293  +6.1       
09 17.10.17 290 (З) 7-13{15}  н/о    н/о 
+8 +1.8 65 +6  1000.2  1.6  747  292           
12 17.10.17 280 (З) 7-12{15}  н/о    н/о 
+8.5 +2 64 +6  1001.5  1.6  748  292           
15 17.10.17 270 (З) 5{12}  н/о    н/о 
+7.6 +2.7 71 +6  1002.1  0.6  748  293           
18 17.10.17 270 (З) 3{12}  29000 м    9/8 720 м средняя 
[Sc|Ac trans]
+6.6 +2.9 77 +6  1001.5  -0.7  748  294    +8.8       
21 17.10.17 270 (З) н/о    н/о 
+5.8 +2.9 82 +6  1000  -1.5  746  294           
00 18.10.17 290 (З) н/о    н/о 
+5.2 +2.8 84 +6  998  -2  745  294           
03 18.10.17 тихо ()   н/о    н/о 
+4 +2.7 91 +4  996.2  -1.8  744  295  +4         
06 18.10.17 290 (З) 27000 м    10/10 800 м 
[Sc]
+4.5 +3 90 +5  995.5  -0.7  743  294  +3.4         
09 18.10.17 290 (З) н/о    н/о 
+5.7 +3.1 83 +5  995  -0.5  743  293           
12 18.10.17 310 (СЗ) н/о    н/о 
+6 +2.2 77 +5  995.5  0.6  743  293           
15 18.10.17 300 (СЗ) н/о    н/о 
+4.7 +2 83 +4  997  1.5  744  294           
18 18.10.17 300 (СЗ) 25000 м    9/9 840 м 
[Sc]
+4 +1.3 83 +3  998.7  1.7  746  296    +6.1       
21 18.10.17 300 (СЗ) н/о    н/о 
+3.4 +0.8 83 +2  1000.4  1.6  747  297           
00 19.10.17 300 (СЗ) н/о    н/о 
+2.4 +0.4 87 +1  1001.9  1.5  748  299           
03 19.10.17 300 (СЗ) н/о    н/о 
+2.5 +0.7 88 +1  1004.1  2.1  749  299  +1.9         
06 19.10.17 310 (СЗ) 6000 м  слаб. ливневой дождь  10/10 570 м кучево-дожд. 
[Cb cap]
+2.8 +1.3 90 +1  1006.7  2.6  751  299  +1.9    0.5     
09 19.10.17 320 (СЗ) н/о    н/о 
+3.6 +2.1 90 +2  1009.7  3.1  754  299           
12 19.10.17 320 (СЗ) н/о    н/о 
+3.2 +1.7 90 +2  1012.3  2.6  756  301           
15 19.10.17 310 (СЗ) н/о    н/о 
+2.4 +0.6 88 +2  1014.5  2.2  757  302           
18 19.10.17 330 (СЗ) 18000 м    6/0 средняя, верхняя 
[Ac trans|Ci fib]
+0.6 -0.9 90 +1  1016.2  1.6  758  305    +4.5     
21 19.10.17 330 (СЗ) н/о    н/о 
+1.4 -0.2 89 +2  1017.6  1.4  760  304           
00 20.10.17 310 (СЗ) н/о    н/о 
-0.2 -0.9 95 1018.5  0.9  760  307           
03 20.10.17 320 (СЗ) н/о    н/о 
-0.9 -1.6 95 1019.4  0.9  761  308  -1         
Время (UTC), дата Ветер
(°,м/с) 
Видим.   Явления Облачность Т
(°С)
Тd
(°С)
f(%) Тe
(°С)
Pmin
(гПа)
dP
(гПа)
Po
(мм)
O2
(г/м3)
Тmin Tmax R s Состояние
почвы

Для получения пояснительной информации подведите курсор к названию столбца.

ПОГОДА в Кондопоге - архив

Всё, что Вы хотите узнать о погоде в Кондопоге - удобно и подробно!

Выберите нужную дату (начиная с 1 января 2015* года) и нажмите кнопку "Найти".
Будут отображены архивные сводки погоды по пункту Кондопога, начиная с указанной даты.


Отображать данные в формате CSV (для использования в таблицах Excel)


Внимание! Наш архив погоды предназначен исключительно для личного некоммерческого использования в познавательных целях. Если Вам необходимы официальные справки о состоянии погоды (для производственных, юридических, коммерческих и т.п. целей), обращайтесь в органы Росгидромета.

*Примечание: данная дата относится к архиву по метеостанциям СССР (Россия, СНГ, Балтия).
Архив по метеостанциям Зарубежной Европы и Азии (кроме Китая) хранится 10 дней, по другим регионам земного шара (Китай, Африка, Америка, Австралия, Океания) - 1 день.

Кондопога - район местоположения метеостанции


Название, широта, долгота, высота метеостанции:
Кондопога 62.2°ш. 34.3°д. 38 м над ур. моря [Российская Федерация]

Дополнительная информация

В oтличие oт бoльшинства пoгoдных сайтoв мы публикуем пoдрoбную метеoинфoрмацию в детальнoм прoфессиoнальнoм фoрмате.

Характеристики температуры и влажнoсти вoздуха измеряются на высoте 2 м в тени вдали oт зданий и деревьев.
Скoрoсть ветра измеряется на высoте 10 м (на урoвне рoста челoвека скoрoсть ветра ниже в 1.5-2 раза). Если метеoстанция нахoдится в гoрoде или в лесу, тo скoрoсть ветра занижена на 2-4 м/с пo сравнению с oткрытым местoм. Скoрoсть ветра над акватoриями крупных рек и oзёр, а также на вершинах хoлмoв на 2-5 м/с выше, чем в oбычных услoвиях.
Атмoсфернoе давление в разных тoчках местнoсти мoжет значительнo oтличаться oт давления на метеoстанции, в зависимoсти oт услoвий рельефа (при пoдъёме на 10 м давление пoнижается примернo на 1 мм рт.ст.).